Tracking 30260 objects as of 14-Feb-2025
HD Live streaming from Space Station
objects crossing your sky now

NOAA 17 DEB

Track NOAA 17 DEB now!
10-day predictions


NORAD ID: 48178
Int'l Code: 2002-032U
Perigee: 745.0 km
Apogee: 757.6 km
Inclination: 98.9 °
Period: 99.7 minutes
Semi major axis: 7122 km
RCS: Unknown
Launch date: June 24, 2002
Source: United States (US)
Launch site: AIR FORCE WESTERN TEST RANGE (AFWTR)

Note: This is SATELLITE DEBRIS
Your satellite tracking list
Your tracking list is empty




NASA's NSSDC Master Catalog

Two Line Element Set (TLE):
1 48178U 02032T   25045.40686110  .00014211  00000-0  41317-2 0  9994
2 48178  98.8546  31.9981 0008836 284.4647  75.5562 14.44348138203309
Source of the keplerian elements: AFSPC